station,date_time,water_elev
365751089080301,05/02/2011 14:13,311.81
365751089080301,05/02/2011 14:14,311.81
365751089080301,05/02/2011 14:15,311.82
365751089080301,05/02/2011 14:16,311.82
365751089080301,05/02/2011 14:17,311.83
365751089080301,05/02/2011 14:18,311.83
365751089080301,05/02/2011 14:19,311.83
365751089080301,05/02/2011 14:20,311.83
365751089080301,05/02/2011 14:21,311.84
365751089080301,05/02/2011 14:22,311.84
365751089080301,05/02/2011 14:23,311.83
365751089080301,05/02/2011 14:24,311.83
365751089080301,05/02/2011 14:25,311.84
365751089080301,05/02/2011 14:26,311.83
365751089080301,05/02/2011 14:27,311.84
365751089080301,05/02/2011 14:28,311.85
365751089080301,05/02/2011 14:29,311.84
365751089080301,05/02/2011 14:30,311.82
365751089080301,05/02/2011 14:31,311.83
365751089080301,05/02/2011 14:32,311.83
365751089080301,05/02/2011 14:33,311.83
365751089080301,05/02/2011 14:34,311.85
365751089080301,05/02/2011 14:35,311.85
365751089080301,05/02/2011 14:36,311.85
365751089080301,05/02/2011 14:37,311.85
365751089080301,05/02/2011 14:38,311.84
365751089080301,05/02/2011 14:39,311.84
365751089080301,05/02/2011 14:40,311.85
365751089080301,05/02/2011 14:41,311.84
365751089080301,05/02/2011 14:42,311.83
365751089080301,05/02/2011 14:43,311.85
365751089080301,05/02/2011 14:44,311.85
365751089080301,05/02/2011 14:45,311.86
365751089080301,05/02/2011 14:46,311.84
365751089080301,05/02/2011 14:47,311.84
365751089080301,05/02/2011 14:48,311.84
365751089080301,05/02/2011 14:49,311.85
365751089080301,05/02/2011 14:50,311.85
365751089080301,05/02/2011 14:51,311.85
365751089080301,05/02/2011 14:52,311.86
365751089080301,05/02/2011 14:53,311.85
365751089080301,05/02/2011 14:54,311.85
365751089080301,05/02/2011 14:55,311.85
365751089080301,05/02/2011 14:56,311.85
365751089080301,05/02/2011 14:57,311.85
365751089080301,05/02/2011 14:58,311.85
365751089080301,05/02/2011 14:59,311.86
365751089080301,05/02/2011 15:00,311.87
365751089080301,05/02/2011 15:01,311.87
365751089080301,05/02/2011 15:02,311.86
365751089080301,05/02/2011 15:03,311.87
365751089080301,05/02/2011 15:04,311.87
365751089080301,05/02/2011 15:05,311.87
365751089080301,05/02/2011 15:06,311.87
365751089080301,05/02/2011 15:07,311.86
365751089080301,05/02/2011 15:08,311.86
365751089080301,05/02/2011 15:09,311.86
365751089080301,05/02/2011 15:10,311.87
365751089080301,05/02/2011 15:11,311.86
365751089080301,05/02/2011 15:12,311.86
365751089080301,05/02/2011 15:13,311.86
365751089080301,05/02/2011 15:14,311.87
365751089080301,05/02/2011 15:15,311.87
365751089080301,05/02/2011 15:16,311.88
365751089080301,05/02/2011 15:17,311.88
365751089080301,05/02/2011 15:18,311.88
365751089080301,05/02/2011 15:19,311.87
365751089080301,05/02/2011 15:20,311.87
365751089080301,05/02/2011 15:21,311.87
365751089080301,05/02/2011 15:22,311.87
365751089080301,05/02/2011 15:23,311.87
365751089080301,05/02/2011 15:24,311.87
365751089080301,05/02/2011 15:25,311.87
365751089080301,05/02/2011 15:26,311.88
365751089080301,05/02/2011 15:27,311.89
365751089080301,05/02/2011 15:28,311.89
365751089080301,05/02/2011 15:29,311.89
365751089080301,05/02/2011 15:30,311.88
365751089080301,05/02/2011 15:31,311.89
365751089080301,05/02/2011 15:32,311.88
365751089080301,05/02/2011 15:33,311.89
365751089080301,05/02/2011 15:34,311.89
365751089080301,05/02/2011 15:35,311.89
365751089080301,05/02/2011 15:36,311.89
365751089080301,05/02/2011 15:37,311.89
365751089080301,05/02/2011 15:38,311.89
365751089080301,05/02/2011 15:39,311.88
365751089080301,05/02/2011 15:40,311.89
365751089080301,05/02/2011 15:41,311.88
365751089080301,05/02/2011 15:42,311.89
365751089080301,05/02/2011 15:43,311.88
365751089080301,05/02/2011 15:44,311.89
365751089080301,05/02/2011 15:45,311.88
365751089080301,05/02/2011 15:46,311.9
365751089080301,05/02/2011 15:47,311.9
365751089080301,05/02/2011 15:48,311.89
365751089080301,05/02/2011 15:49,311.9
365751089080301,05/02/2011 15:50,311.9
365751089080301,05/02/2011 15:51,311.9
365751089080301,05/02/2011 15:52,311.9
365751089080301,05/02/2011 15:53,311.9
365751089080301,05/02/2011 15:54,311.92
365751089080301,05/02/2011 15:55,311.91
365751089080301,05/02/2011 15:56,311.9
365751089080301,05/02/2011 15:57,311.89
365751089080301,05/02/2011 15:58,311.9
365751089080301,05/02/2011 15:59,311.9
365751089080301,05/02/2011 16:00,311.89
365751089080301,05/02/2011 16:01,311.9
365751089080301,05/02/2011 16:02,311.9
365751089080301,05/02/2011 16:03,311.91
365751089080301,05/02/2011 16:04,311.9
365751089080301,05/02/2011 16:05,311.9
365751089080301,05/02/2011 16:06,311.91
365751089080301,05/02/2011 16:07,311.9
365751089080301,05/02/2011 16:08,311.91
365751089080301,05/02/2011 16:09,311.91
365751089080301,05/02/2011 16:10,311.91
365751089080301,05/02/2011 16:11,311.9
365751089080301,05/02/2011 16:12,311.9
365751089080301,05/02/2011 16:13,311.89
365751089080301,05/02/2011 16:14,311.89
365751089080301,05/02/2011 16:15,311.91
365751089080301,05/02/2011 16:16,311.91
365751089080301,05/02/2011 16:17,311.91
365751089080301,05/02/2011 16:18,311.91
365751089080301,05/02/2011 16:19,311.91
365751089080301,05/02/2011 16:20,311.9
365751089080301,05/02/2011 16:21,311.91
365751089080301,05/02/2011 16:22,311.92
365751089080301,05/02/2011 16:23,311.9
365751089080301,05/02/2011 16:24,311.91
365751089080301,05/02/2011 16:25,311.9
365751089080301,05/02/2011 16:26,311.92
365751089080301,05/02/2011 16:27,311.92
365751089080301,05/02/2011 16:28,311.91
365751089080301,05/02/2011 16:29,311.91
365751089080301,05/02/2011 16:30,311.92
365751089080301,05/02/2011 16:31,311.9
365751089080301,05/02/2011 16:32,311.92
365751089080301,05/02/2011 16:33,311.91
365751089080301,05/02/2011 16:34,311.9
365751089080301,05/02/2011 16:35,311.91
365751089080301,05/02/2011 16:36,311.92
365751089080301,05/02/2011 16:37,311.92
365751089080301,05/02/2011 16:38,311.92
365751089080301,05/02/2011 16:39,311.92
365751089080301,05/02/2011 16:40,311.92
365751089080301,05/02/2011 16:41,311.92
365751089080301,05/02/2011 16:42,311.91
365751089080301,05/02/2011 16:43,311.91
365751089080301,05/02/2011 16:44,311.91
365751089080301,05/02/2011 16:45,311.92
365751089080301,05/02/2011 16:46,311.91
365751089080301,05/02/2011 16:47,311.92
365751089080301,05/02/2011 16:48,311.92
365751089080301,05/02/2011 16:49,311.92
365751089080301,05/02/2011 16:50,311.92
365751089080301,05/02/2011 16:51,311.91
365751089080301,05/02/2011 16:52,311.9
365751089080301,05/02/2011 16:53,311.92
365751089080301,05/02/2011 16:54,311.91
365751089080301,05/02/2011 16:55,311.92
365751089080301,05/02/2011 16:56,311.92
365751089080301,05/02/2011 16:57,311.92
365751089080301,05/02/2011 16:58,311.92
365751089080301,05/02/2011 16:59,311.92
365751089080301,05/02/2011 17:00,311.92
365751089080301,05/02/2011 17:01,311.92
365751089080301,05/02/2011 17:02,311.92
365751089080301,05/02/2011 17:03,311.92
365751089080301,05/02/2011 17:04,311.92
365751089080301,05/02/2011 17:05,311.91
365751089080301,05/02/2011 17:06,311.92
365751089080301,05/02/2011 17:07,311.9
365751089080301,05/02/2011 17:08,311.92
365751089080301,05/02/2011 17:09,311.92
365751089080301,05/02/2011 17:10,311.92
365751089080301,05/02/2011 17:11,311.92
365751089080301,05/02/2011 17:12,311.92
365751089080301,05/02/2011 17:13,311.92
365751089080301,05/02/2011 17:14,311.92
365751089080301,05/02/2011 17:15,311.92
365751089080301,05/02/2011 17:16,311.91
365751089080301,05/02/2011 17:17,311.91
365751089080301,05/02/2011 17:18,311.91
365751089080301,05/02/2011 17:19,311.92
365751089080301,05/02/2011 17:20,311.92
365751089080301,05/02/2011 17:21,311.92
365751089080301,05/02/2011 17:22,311.92
365751089080301,05/02/2011 17:23,311.92
365751089080301,05/02/2011 17:24,311.92
365751089080301,05/02/2011 17:25,311.92
365751089080301,05/02/2011 17:26,311.91
365751089080301,05/02/2011 17:27,311.93
365751089080301,05/02/2011 17:28,311.92
365751089080301,05/02/2011 17:29,311.91
365751089080301,05/02/2011 17:30,311.92
365751089080301,05/02/2011 17:31,311.92
365751089080301,05/02/2011 17:32,311.92
365751089080301,05/02/2011 17:33,311.91
365751089080301,05/02/2011 17:34,311.91
365751089080301,05/02/2011 17:35,311.93
365751089080301,05/02/2011 17:36,311.91
365751089080301,05/02/2011 17:37,311.92
365751089080301,05/02/2011 17:38,311.92
365751089080301,05/02/2011 17:39,311.92
365751089080301,05/02/2011 17:40,311.91
365751089080301,05/02/2011 17:41,311.92
365751089080301,05/02/2011 17:42,311.91
365751089080301,05/02/2011 17:43,311.94
365751089080301,05/02/2011 17:44,311.92
365751089080301,05/02/2011 17:45,311.92
365751089080301,05/02/2011 17:46,311.91
365751089080301,05/02/2011 17:47,311.92
365751089080301,05/02/2011 17:48,311.91
365751089080301,05/02/2011 17:49,311.91
365751089080301,05/02/2011 17:50,311.91
365751089080301,05/02/2011 17:51,311.91
365751089080301,05/02/2011 17:52,311.9
365751089080301,05/02/2011 17:53,311.92
365751089080301,05/02/2011 17:54,311.92
365751089080301,05/02/2011 17:55,311.92
365751089080301,05/02/2011 17:56,311.92
365751089080301,05/02/2011 17:57,311.91
365751089080301,05/02/2011 17:58,311.92
365751089080301,05/02/2011 17:59,311.91
365751089080301,05/02/2011 18:00,311.91
365751089080301,05/02/2011 18:01,311.92
365751089080301,05/02/2011 18:02,311.92
365751089080301,05/02/2011 18:03,311.92
365751089080301,05/02/2011 18:04,311.92
365751089080301,05/02/2011 18:05,311.92
365751089080301,05/02/2011 18:06,311.91
365751089080301,05/02/2011 18:07,311.91
365751089080301,05/02/2011 18:08,311.91
365751089080301,05/02/2011 18:09,311.91
365751089080301,05/02/2011 18:10,311.93
365751089080301,05/02/2011 18:11,311.93
365751089080301,05/02/2011 18:12,311.93
365751089080301,05/02/2011 18:13,311.93
365751089080301,05/02/2011 18:14,311.92
365751089080301,05/02/2011 18:15,311.92
365751089080301,05/02/2011 18:16,311.93
365751089080301,05/02/2011 18:17,311.92
365751089080301,05/02/2011 18:18,311.92
365751089080301,05/02/2011 18:19,311.92
365751089080301,05/02/2011 18:20,311.91
365751089080301,05/02/2011 18:21,311.92
365751089080301,05/02/2011 18:22,311.92
365751089080301,05/02/2011 18:23,311.93
365751089080301,05/02/2011 18:24,311.93
365751089080301,05/02/2011 18:25,311.92
365751089080301,05/02/2011 18:26,311.93
365751089080301,05/02/2011 18:27,311.93
365751089080301,05/02/2011 18:28,311.92
365751089080301,05/02/2011 18:29,311.92
365751089080301,05/02/2011 18:30,311.93
365751089080301,05/02/2011 18:31,311.93
365751089080301,05/02/2011 18:32,311.94
365751089080301,05/02/2011 18:33,311.93
365751089080301,05/02/2011 18:34,311.92
365751089080301,05/02/2011 18:35,311.92
365751089080301,05/02/2011 18:36,311.92
365751089080301,05/02/2011 18:37,311.93
365751089080301,05/02/2011 18:38,311.92
365751089080301,05/02/2011 18:39,311.94
365751089080301,05/02/2011 18:40,311.93
365751089080301,05/02/2011 18:41,311.93
365751089080301,05/02/2011 18:42,311.93
365751089080301,05/02/2011 18:43,311.94
365751089080301,05/02/2011 18:44,311.92
365751089080301,05/02/2011 18:45,311.93
365751089080301,05/02/2011 18:46,311.94
365751089080301,05/02/2011 18:47,311.93
365751089080301,05/02/2011 18:48,311.93
365751089080301,05/02/2011 18:49,311.95
365751089080301,05/02/2011 18:50,311.93
365751089080301,05/02/2011 18:51,311.93
365751089080301,05/02/2011 18:52,311.93
365751089080301,05/02/2011 18:53,311.93
365751089080301,05/02/2011 18:54,311.93
365751089080301,05/02/2011 18:55,311.93
365751089080301,05/02/2011 18:56,311.93
365751089080301,05/02/2011 18:57,311.94
365751089080301,05/02/2011 18:58,311.93
365751089080301,05/02/2011 18:59,311.93
365751089080301,05/02/2011 19:00,311.93
365751089080301,05/02/2011 19:01,311.93
365751089080301,05/02/2011 19:02,311.94
365751089080301,05/02/2011 19:03,311.95
365751089080301,05/02/2011 19:04,311.94
365751089080301,05/02/2011 19:05,311.94
365751089080301,05/02/2011 19:06,311.94
365751089080301,05/02/2011 19:07,311.94
365751089080301,05/02/2011 19:08,311.94
365751089080301,05/02/2011 19:09,311.94
365751089080301,05/02/2011 19:10,311.94
365751089080301,05/02/2011 19:11,311.94
365751089080301,05/02/2011 19:12,311.94
365751089080301,05/02/2011 19:13,311.94
365751089080301,05/02/2011 19:14,311.94
365751089080301,05/02/2011 19:15,311.95
365751089080301,05/02/2011 19:16,311.94
365751089080301,05/02/2011 19:17,311.94
365751089080301,05/02/2011 19:18,311.94
365751089080301,05/02/2011 19:19,311.94
365751089080301,05/02/2011 19:20,311.94
365751089080301,05/02/2011 19:21,311.94
365751089080301,05/02/2011 19:22,311.95
365751089080301,05/02/2011 19:23,311.95
365751089080301,05/02/2011 19:24,311.95
365751089080301,05/02/2011 19:25,311.94
365751089080301,05/02/2011 19:26,311.94
365751089080301,05/02/2011 19:27,311.95
365751089080301,05/02/2011 19:28,311.94
365751089080301,05/02/2011 19:29,311.93
365751089080301,05/02/2011 19:30,311.95
365751089080301,05/02/2011 19:31,311.95
365751089080301,05/02/2011 19:32,311.94
365751089080301,05/02/2011 19:33,311.95
365751089080301,05/02/2011 19:34,311.95
365751089080301,05/02/2011 19:35,311.95
365751089080301,05/02/2011 19:36,311.95
365751089080301,05/02/2011 19:37,311.96
365751089080301,05/02/2011 19:38,311.96
365751089080301,05/02/2011 19:39,311.93
365751089080301,05/02/2011 19:40,311.94
365751089080301,05/02/2011 19:41,311.95
365751089080301,05/02/2011 19:42,311.95
365751089080301,05/02/2011 19:43,311.95
365751089080301,05/02/2011 19:44,311.95
365751089080301,05/02/2011 19:45,311.94
365751089080301,05/02/2011 19:46,311.95
365751089080301,05/02/2011 19:47,311.94
365751089080301,05/02/2011 19:48,311.94
365751089080301,05/02/2011 19:49,311.94
365751089080301,05/02/2011 19:50,311.95
365751089080301,05/02/2011 19:51,311.95
365751089080301,05/02/2011 19:52,311.94
365751089080301,05/02/2011 19:53,311.94
365751089080301,05/02/2011 19:54,311.95
365751089080301,05/02/2011 19:55,311.95
365751089080301,05/02/2011 19:56,311.95
365751089080301,05/02/2011 19:57,311.95
365751089080301,05/02/2011 19:58,311.95
365751089080301,05/02/2011 19:59,311.95
365751089080301,05/02/2011 20:00,311.95
365751089080301,05/02/2011 20:01,311.95
365751089080301,05/02/2011 20:02,311.95
365751089080301,05/02/2011 20:03,311.94
365751089080301,05/02/2011 20:04,311.95
365751089080301,05/02/2011 20:05,311.94
365751089080301,05/02/2011 20:06,311.96
365751089080301,05/02/2011 20:07,311.95
365751089080301,05/02/2011 20:08,311.95
365751089080301,05/02/2011 20:09,311.97
365751089080301,05/02/2011 20:10,311.94
365751089080301,05/02/2011 20:11,311.94
365751089080301,05/02/2011 20:12,311.94
365751089080301,05/02/2011 20:13,311.96
365751089080301,05/02/2011 20:14,311.95
365751089080301,05/02/2011 20:15,311.95
365751089080301,05/02/2011 20:16,311.95
365751089080301,05/02/2011 20:17,311.95
365751089080301,05/02/2011 20:18,311.94
365751089080301,05/02/2011 20:19,311.95
365751089080301,05/02/2011 20:20,311.94
365751089080301,05/02/2011 20:21,311.95
365751089080301,05/02/2011 20:22,311.95
365751089080301,05/02/2011 20:23,311.94
365751089080301,05/02/2011 20:24,311.95
365751089080301,05/02/2011 20:25,311.94
365751089080301,05/02/2011 20:26,311.94
365751089080301,05/02/2011 20:27,311.94
365751089080301,05/02/2011 20:28,311.94
365751089080301,05/02/2011 20:29,311.92
365751089080301,05/02/2011 20:30,311.93
365751089080301,05/02/2011 20:31,311.94
365751089080301,05/02/2011 20:32,311.94
365751089080301,05/02/2011 20:33,311.94
365751089080301,05/02/2011 20:34,311.94
365751089080301,05/02/2011 20:35,311.95
365751089080301,05/02/2011 20:36,311.94
365751089080301,05/02/2011 20:37,311.95
365751089080301,05/02/2011 20:38,311.94
365751089080301,05/02/2011 20:39,311.95
365751089080301,05/02/2011 20:40,311.94
365751089080301,05/02/2011 20:41,311.94
365751089080301,05/02/2011 20:42,311.94
365751089080301,05/02/2011 20:43,311.94
365751089080301,05/02/2011 20:44,311.95
365751089080301,05/02/2011 20:45,311.95
365751089080301,05/02/2011 20:46,311.95
365751089080301,05/02/2011 20:47,311.94
365751089080301,05/02/2011 20:48,311.94
365751089080301,05/02/2011 20:49,311.95
365751089080301,05/02/2011 20:50,311.94
365751089080301,05/02/2011 20:51,311.95
365751089080301,05/02/2011 20:52,311.94
365751089080301,05/02/2011 20:53,311.95
365751089080301,05/02/2011 20:54,311.94
365751089080301,05/02/2011 20:55,311.94
365751089080301,05/02/2011 20:56,311.94
365751089080301,05/02/2011 20:57,311.94
365751089080301,05/02/2011 20:58,311.94
365751089080301,05/02/2011 20:59,311.94
365751089080301,05/02/2011 21:00,311.94
365751089080301,05/02/2011 21:01,311.94
365751089080301,05/02/2011 21:02,311.96
365751089080301,05/02/2011 21:03,311.94
365751089080301,05/02/2011 21:04,311.94
365751089080301,05/02/2011 21:05,311.94
365751089080301,05/02/2011 21:06,311.94
365751089080301,05/02/2011 21:07,311.92
365751089080301,05/02/2011 21:08,311.93
365751089080301,05/02/2011 21:09,311.93
365751089080301,05/02/2011 21:10,311.94
365751089080301,05/02/2011 21:11,311.94
365751089080301,05/02/2011 21:12,311.94
365751089080301,05/02/2011 21:13,311.94
365751089080301,05/02/2011 21:14,311.94
365751089080301,05/02/2011 21:15,311.93
365751089080301,05/02/2011 21:16,311.92
365751089080301,05/02/2011 21:17,311.93
365751089080301,05/02/2011 21:18,311.93
365751089080301,05/02/2011 21:19,311.93
365751089080301,05/02/2011 21:20,311.94
365751089080301,05/02/2011 21:21,311.94
365751089080301,05/02/2011 21:22,311.95
365751089080301,05/02/2011 21:23,311.94
365751089080301,05/02/2011 21:24,311.94
365751089080301,05/02/2011 21:25,311.94
365751089080301,05/02/2011 21:26,311.94
365751089080301,05/02/2011 21:27,311.93
365751089080301,05/02/2011 21:28,311.94
365751089080301,05/02/2011 21:29,311.94
365751089080301,05/02/2011 21:30,311.94
365751089080301,05/02/2011 21:31,311.93
365751089080301,05/02/2011 21:32,311.94
365751089080301,05/02/2011 21:33,311.93
365751089080301,05/02/2011 21:34,311.93
365751089080301,05/02/2011 21:35,311.92
365751089080301,05/02/2011 21:36,311.93
365751089080301,05/02/2011 21:37,311.93
365751089080301,05/02/2011 21:38,311.93
365751089080301,05/02/2011 21:39,311.93
365751089080301,05/02/2011 21:40,311.94
365751089080301,05/02/2011 21:41,311.94
365751089080301,05/02/2011 21:42,311.94
365751089080301,05/02/2011 21:43,311.94
365751089080301,05/02/2011 21:44,311.93
365751089080301,05/02/2011 21:45,311.94
365751089080301,05/02/2011 21:46,311.94
365751089080301,05/02/2011 21:47,311.93
365751089080301,05/02/2011 21:48,311.93
365751089080301,05/02/2011 21:49,311.91
365751089080301,05/02/2011 21:50,311.92
365751089080301,05/02/2011 21:51,311.92
365751089080301,05/02/2011 21:52,311.94
365751089080301,05/02/2011 21:53,311.94
365751089080301,05/02/2011 21:54,311.94
365751089080301,05/02/2011 21:55,311.94
365751089080301,05/02/2011 21:56,311.94
365751089080301,05/02/2011 21:57,311.94
365751089080301,05/02/2011 21:58,311.93
365751089080301,05/02/2011 21:59,311.94
365751089080301,05/02/2011 22:00,311.94
365751089080301,05/02/2011 22:01,311.94
365751089080301,05/02/2011 22:02,311.93
365751089080301,05/02/2011 22:03,311.92
365751089080301,05/02/2011 22:04,311.93
365751089080301,05/02/2011 22:05,311.92
365751089080301,05/02/2011 22:06,311.92
365751089080301,05/02/2011 22:07,311.93
365751089080301,05/02/2011 22:08,311.95
365751089080301,05/02/2011 22:09,311.97
365751089080301,05/02/2011 22:10,312.32
365751089080301,05/02/2011 22:11,312.59
365751089080301,05/02/2011 22:12,312.83
365751089080301,05/02/2011 22:13,313.27
365751089080301,05/02/2011 22:14,313.74
365751089080301,05/02/2011 22:15,314.16
365751089080301,05/02/2011 22:16,314.58
365751089080301,05/02/2011 22:17,314.99
365751089080301,05/02/2011 22:18,315.37
365751089080301,05/02/2011 22:19,315.82
365751089080301,05/02/2011 22:20,316.14
365751089080301,05/02/2011 22:21,316.49
365751089080301,05/02/2011 22:22,316.76
365751089080301,05/02/2011 22:23,317.01
365751089080301,05/02/2011 22:24,317.18
365751089080301,05/02/2011 22:25,317.31
365751089080301,05/02/2011 22:26,317.5
365751089080301,05/02/2011 22:27,317.63
365751089080301,05/02/2011 22:28,317.76
365751089080301,05/02/2011 22:29,317.89
365751089080301,05/02/2011 22:30,318
365751089080301,05/02/2011 22:31,318.07
365751089080301,05/02/2011 22:32,318.19
365751089080301,05/02/2011 22:33,318.27
365751089080301,05/02/2011 22:34,318.35
365751089080301,05/02/2011 22:35,318.4
365751089080301,05/02/2011 22:36,318.49
365751089080301,05/02/2011 22:37,318.58
365751089080301,05/02/2011 22:38,318.61
365751089080301,05/02/2011 22:39,318.67
365751089080301,05/02/2011 22:40,318.72
365751089080301,05/02/2011 22:41,318.78
365751089080301,05/02/2011 22:42,318.82
365751089080301,05/02/2011 22:43,318.86
365751089080301,05/02/2011 22:44,318.9
365751089080301,05/02/2011 22:45,318.94
365751089080301,05/02/2011 22:46,318.99
365751089080301,05/02/2011 22:47,319.03
365751089080301,05/02/2011 22:48,319.07
365751089080301,05/02/2011 22:49,319.13
365751089080301,05/02/2011 22:50,319.16
365751089080301,05/02/2011 22:51,319.23
365751089080301,05/02/2011 22:52,319.25
365751089080301,05/02/2011 22:53,319.26
365751089080301,05/02/2011 22:54,319.31
365751089080301,05/02/2011 22:55,319.38
365751089080301,05/02/2011 22:56,319.37
365751089080301,05/02/2011 22:57,319.41
365751089080301,05/02/2011 22:58,319.42
365751089080301,05/02/2011 22:59,319.45
365751089080301,05/02/2011 23:00,319.46
365751089080301,05/02/2011 23:01,319.47
365751089080301,05/02/2011 23:02,319.48
365751089080301,05/02/2011 23:03,319.52
365751089080301,05/02/2011 23:04,319.52
365751089080301,05/02/2011 23:05,319.52
365751089080301,05/02/2011 23:06,319.54
365751089080301,05/02/2011 23:07,319.54
365751089080301,05/02/2011 23:08,319.55
365751089080301,05/02/2011 23:09,319.57
365751089080301,05/02/2011 23:10,319.58
365751089080301,05/02/2011 23:11,319.58
365751089080301,05/02/2011 23:12,319.61
365751089080301,05/02/2011 23:13,319.63
365751089080301,05/02/2011 23:14,319.62
365751089080301,05/02/2011 23:15,319.64
365751089080301,05/02/2011 23:16,319.66
365751089080301,05/02/2011 23:17,319.66
365751089080301,05/02/2011 23:18,319.69
365751089080301,05/02/2011 23:19,319.7
365751089080301,05/02/2011 23:20,319.73
365751089080301,05/02/2011 23:21,319.76
365751089080301,05/02/2011 23:22,319.75
365751089080301,05/02/2011 23:23,319.8
365751089080301,05/02/2011 23:24,319.82
365751089080301,05/02/2011 23:25,319.83
365751089080301,05/02/2011 23:26,319.87
365751089080301,05/02/2011 23:27,319.87
365751089080301,05/02/2011 23:28,319.91
365751089080301,05/02/2011 23:29,319.93
365751089080301,05/02/2011 23:30,319.98
365751089080301,05/02/2011 23:31,320.01
365751089080301,05/02/2011 23:32,320.04
365751089080301,05/02/2011 23:33,320.05
365751089080301,05/02/2011 23:34,320.08
365751089080301,05/02/2011 23:35,320.13
365751089080301,05/02/2011 23:36,320.17
365751089080301,05/02/2011 23:37,320.18
365751089080301,05/02/2011 23:38,320.23
365751089080301,05/02/2011 23:39,320.25
365751089080301,05/02/2011 23:40,320.29
365751089080301,05/02/2011 23:41,320.31
365751089080301,05/02/2011 23:42,320.37
365751089080301,05/02/2011 23:43,320.39
365751089080301,05/02/2011 23:44,320.43
365751089080301,05/02/2011 23:45,320.47
365751089080301,05/02/2011 23:46,320.54
365751089080301,05/02/2011 23:47,320.55
365751089080301,05/02/2011 23:48,320.59
365751089080301,05/02/2011 23:49,320.61
365751089080301,05/02/2011 23:50,320.67
365751089080301,05/02/2011 23:51,320.71
365751089080301,05/02/2011 23:52,320.75
365751089080301,05/02/2011 23:53,320.79
365751089080301,05/02/2011 23:54,320.82
365751089080301,05/02/2011 23:55,320.85
365751089080301,05/02/2011 23:56,320.88
365751089080301,05/02/2011 23:57,320.91